Regional Weather Roundup
Issued by NWS Sioux Falls, SD

Home | Current Version | Previous Version | Text Only | Print | Product List | Glossary On
Versions: 1 2 3 4 5 6 7 8 9 10 11 12 13 14 15 16 17 18 19 20 21 22 23 24 25 26 27 28 29 30 31 32 33 34 35 36 37 38 39 40 41 42 43 44 45 46 47 48 49 50
000
ASUS43 KFSD 220602
RWRFSD

WEATHER ROUNDUP FOR SE SOUTH DAKOTA/SW MINNESOTA/NW IOWA
NATIONAL WEATHER SERVICE SIOUX FALLS SD
1200 AM CST SUN JAN 22 2017

NOTE: "FAIR" INDICATES FEW OR NO CLOUDS BELOW 12,000 FEET WITH NO
SIGNIFICANT WEATHER AND OR OBSTRUCTIONS TO VISIBILITY.


SDZ038>040-050-052>070-220700-
SOUTHEAST SOUTH DAKOTA

CITY           SKY/WX    TMP DP  RH WIND       PRES   REMARKS
BROOKINGS      CLOUDY    31  30  96 NW8       29.57R WCI  23
CHAMBERLAIN    FOG       25  25  98 CALM      29.64R VSB 1/4
6HR MIN TEMP:  25; 6HR MAX TEMP:  32;

HURON          CLOUDY    31  29  92 NW9       29.61R WCI  23
6HR MIN TEMP:  31; 6HR MAX TEMP:  32;

MADISON          N/A     30  30 100 NW9         N/A  WCI  22
MITCHELL       CLOUDY    32  30  92 NW8       29.63R WCI  25
6HR MIN TEMP:  32; 6HR MAX TEMP:  33;

SIOUX FALLS    CLOUDY    32  30  92 NW7       29.59R WCI  26
6HR MIN TEMP:  32; 6HR MAX TEMP:  32;

WINNER         FAIR      29  26  89 W8        29.63R WCI  21
YANKTON        CLOUDY    30  27  86 NW10      29.62R WCI  21
$$

MNZ071-072-080-081-089-090-097-098-220700-
SOUTHWEST MINNESOTA

CITY           SKY/WX    TMP DP  RH WIND       PRES   REMARKS
FAIRMONT       CLOUDY    33  32  96 W8        29.55S FOG     WCI  26
JACKSON        CLOUDY    32  32 100 W10       29.55R FOG     WCI  24
LUVERNE        CLOUDY    32  28  86 W8        29.57S WCI  25
MARSHALL       FOG       33  33 100 NW8       29.57R VSB 1/2 WCI  26
6HR MIN TEMP:  33; 6HR MAX TEMP:  36;

MONTEVIDEO     FOG       34  34 100 CALM      29.58S VSB 1/4
PIPESTONE      CLOUDY    32  32 100 NW7       29.55S FOG     WCI  26
REDWOOD FALLS  FOG       34  32  92 NW5       29.56R VSB 1/4 WCI  30
TRACY          FOG       34  34 100 NW7       29.57R VSB 1   WCI  28
WINDOM         MIX PCPN  34  34 100 W7        29.55R VSB 1/2 WCI  28
WORTHINGTON    CLOUDY    32  31  96 W9        29.56  FOG     WCI  24
$$

IAZ001>003-012>014-020>022-031-032-NEZ013-014-SDZ071-220700-
NORTHWEST IOWA

CITY           SKY/WX    TMP DP  RH WIND       PRES   REMARKS
CHEROKEE       CLOUDY    32  31  95 NW9       29.59R WCI  24
DENISON          N/A     30  30 100 CALM      29.56S
ESTHERVILLE    CLOUDY    32  31  96 W9        29.55R WCI  24
LE MARS        CLOUDY    32  30  93 NW6       29.61R WCI  26
ORANGE CITY    CLOUDY    32  30  93 NW7       29.58S WCI  26
SHELDON        CLOUDY    32  32 100 NW10      29.56S WCI  24
SIOUX CITY     CLEAR     29  27  92 NW5       29.61R FOG     WCI  24
6HR MIN TEMP:  27; 6HR MAX TEMP:  36;

SPENCER          N/A    N/A N/A N/A MISG      29.57R
STORM LAKE     CLOUDY    32  30  93 NW13      29.57S WCI  22
$$

ABBREVIATIONS USED IN REMARKS
   TC - TEMPERATURE IN CELSIUS
  WCI - WIND CHILL INDEX
   HX - HEAT INDEX
  VSB - VISIBILITY




USA.gov is the U.S. government's official web portal to all federal, state and local government web resources and services.